Regional Weather Roundup
Issued by NWS

Home | Current Version | Previous Version | Text Only | Print | Product List | Glossary Off
Versions: 1 2 3 4 5 6 7 8 9 10 11 12 13 14 15 16 17 18 19 20 21 22 23 24 25 26 27 28 29 30 31 32 33 34 35 36 37 38 39 40 41 42 43 44 45 46 47 48 49 50

533
ASUS44 KLIX 222101
RWRLA
LOUISIANA WEATHER ROUNDUP
NATIONAL WEATHER SERVICE NEW ORLEANS LA
300 PM CST SAT NOV 22 2014

NOTE: "FAIR" INDICATES FEW OR NO CLOUDS BELOW 12,000 FEET WITH NO
      SIGNIFICANT WEATHER AND/OR OBSTRUCTIONS TO VISIBILITY.
      SKY/WX - SKY CONDITION AND SIGNIFICANT WEATHER.
      TMP - AIR TEMPERATURE.    DP   - DEWPOINT TEMPERATURE.
      RH  - RELATIVE HUMIDITY.  PRES - PRESSURE.
      HX  - HEAT INDEX.         WCI  - WIND CHILL INDEX.

*  THESE STATIONS ARE NOT NWS OR FAA STATIONS AND ARE NOT UNDER
   NWS QUALITY CONTROL.

LAZ040-048-061>063-065-066-069-222200-
SOUTHEAST LOUISIANA

CITY           SKY/WX    TMP DP  RH WIND       PRES   REMARKS
N.O. AUDUBON     N/A     67  62  82 MISG        N/A
N.O. INTL ARPT CLOUDY    68  59  73 E12       30.07S
N.O. LAKEFRONT CLOUDY    64  58  80 E12       30.07S
N.O. DOWNTOWN* FAIR      64  55  72 E9        30.07F
SLIDELL        CLOUDY    65  56  72 E6        30.09R
BATON ROUGE    CLOUDY    67  58  72 E16       30.05F
BOOTHVILLE     CLOUDY    67  64  90 E10       30.05F
BELLE CHASSE   CLOUDY    68  59  73 E12       30.06S
BOGALUSA*        N/A     69  55  60 SE7       30.10S
NEW ROADS*     NOT AVBL
GONZALES*      NOT AVBL
HAMMOND*       NOT AVBL
HOUMA*         PTSUNNY   70  63  78 E16       30.06
PORT FOURCHON* PTCLDY    70  64  83 E8        30.07S

$$

LAZ041-044-053-054-222200-
SOUTHWEST LOUISIANA

CITY           SKY/WX    TMP DP  RH WIND       PRES   REMARKS
LAKE CHARLES   CLOUDY    70  61  73 SE18      29.97F
LAFAYETTE      CLOUDY    71  59  65 SE10      30.01F
PATTERSON      CLOUDY    70  63  78 E8        30.06F
SALT POINT       N/A     71  62  73 E7        30.02F
NEW IBERIA     CLOUDY    72  60  66 SE15      30.02F
CHENAULT AIRPK NOT AVBL

$$

LAZ027-028-222200-
CENTRAL LOUISIANA

CITY           SKY/WX    TMP DP  RH WIND       PRES   REMARKS
FORT POLK      CLOUDY    67  59  75 E9        29.97F
ALEXANDRIA INT PTSUNNY   69  57  65 SE18      29.98F
ALEXANDRIA     CLOUDY    69  57  65 SE12G18   30.00F

$$

LAZ001-002-222200-
NORTHWEST LOUISIANA

CITY           SKY/WX    TMP DP  RH WIND       PRES   REMARKS
SHREVEPORT     CLOUDY    69  58  67 SE9       29.96F
BARKSDALE AFB  CLOUDY    68  57  67 SE13      29.98F
DTN SHREVEPORT CLOUDY    68  56  65 SE13      29.97F

$$

LAZ014-016-222200-
NORTHEAST LOUISIANA

CITY           SKY/WX    TMP DP  RH WIND       PRES   REMARKS
MONROE         CLOUDY    68  56  65 VRB6      30.02F
TALLULAH       CLOUDY    70  54  56 S9        30.05F

$$




USA.gov is the U.S. government's official web portal to all federal, state and local government web resources and services.